| time (UTC) | temp F | wind direction | speed knots | gust knots | rain 1hr in | rain 24hr in | rain mn in | humidity % | barometer mb |
| 20260510104529 | 48 | 302 | 0.0 | 0.0 | 0.00 | 0.00 | 0.00 | 94 | 1012.4 |
| 20260510104016 | 48 | 306 | 0.0 | 0.0 | 0.00 | 0.00 | 0.00 | 94 | 1012.3 |
| 20260510103515 | 48 | 5 | 0.0 | 0.0 | 0.00 | 0.00 | 0.00 | 93 | 1012.2 |
| 20260510103015 | 48 | 5 | 0.0 | 0.0 | 0.00 | 0.00 | 0.00 | 93 | 1012.2 |
| 20260510102514 | 48 | 5 | 0.0 | 0.0 | 0.00 | 0.00 | 0.00 | 93 | 1012.2 |
| 20260510102014 | 49 | 5 | 0.0 | 0.0 | 0.00 | 0.00 | 0.00 | 93 | 1012.1 |
| 20260510101513 | 49 | 5 | 0.0 | 0.0 | 0.00 | 0.00 | 0.00 | 93 | 1012.2 |
| 20260510101012 | 49 | 5 | 0.0 | 4.3 | 0.00 | 0.00 | 0.00 | 94 | 1012.1 |
| 20260510100511 | 49 | 325 | 0.0 | 4.3 | 0.00 | 0.00 | 0.00 | 94 | 1012.2 |
| 20260510100011 | 48 | 13 | 1.7 | 4.3 | 0.00 | 0.00 | 0.00 | 93 | 1012.2 |
| 20260510095510 | 48 | 15 | 0.0 | 2.6 | 0.00 | 0.00 | 0.00 | 93 | 1012.1 |
| 20260510095013 | 48 | 343 | 0.0 | 2.6 | 0.00 | 0.00 | 0.00 | 93 | 1012.1 |
| 20260510094519 | 48 | 355 | 0.0 | 1.7 | 0.00 | 0.00 | 0.00 | 93 | 1012.0 |
| 20260510094009 | 48 | 325 | 0.0 | 3.5 | 0.00 | 0.00 | 0.00 | 93 | 1011.9 |
| 20260510093509 | 49 | 325 | 0.9 | 3.5 | 0.00 | 0.00 | 0.00 | 93 | 1012.0 |
| 20260510093008 | 49 | 323 | 0.0 | 3.5 | 0.00 | 0.00 | 0.00 | 93 | 1011.9 |
| 20260510092506 | 49 | 319 | 0.9 | 3.5 | 0.00 | 0.00 | 0.00 | 94 | 1011.9 |
| 20260510092006 | 49 | 360 | 0.9 | 3.5 | 0.00 | 0.00 | 0.00 | 94 | 1011.9 |
| 20260510091505 | 48 | 9 | 0.0 | 3.5 | 0.00 | 0.00 | 0.00 | 94 | 1011.8 |
| 20260510091003 | 48 | 342 | 0.9 | 3.5 | 0.00 | 0.00 | 0.00 | 94 | 1011.7 |
| 20260510090502 | 48 | 329 | 0.0 | 3.5 | 0.00 | 0.00 | 0.00 | 93 | 1011.7 |
| 20260510090100 | 48 | 329 | 1.7 | 3.5 | 0.00 | 0.00 | 0.00 | 93 | 1011.6 |
| 20260510085600 | 48 | 31 | 0.9 | 3.5 | 0.00 | 0.00 | 0.00 | 93 | 1011.6 |
| 20260510085059 | 48 | 333 | 0.0 | 0.0 | 0.00 | 0.00 | 0.00 | 93 | 1011.6 |
| 20260510084603 | 48 | 5 | 0.0 | 0.0 | 0.00 | 0.00 | 0.00 | 93 | 1011.7 |
| 20260510084057 | 48 | 318 | 0.0 | 0.0 | 0.00 | 0.00 | 0.00 | 93 | 1011.7 |
| 20260510083559 | 48 | 5 | 0.0 | 0.0 | 0.00 | 0.00 | 0.00 | 93 | 1011.5 |
| 20260510083055 | 48 | 22 | 0.0 | 1.7 | 0.00 | 0.00 | 0.00 | 93 | 1011.4 |
| 20260510082554 | 48 | 13 | 0.0 | 1.7 | 0.00 | 0.00 | 0.00 | 93 | 1011.5 |
| 20260510082053 | 48 | 348 | 0.9 | 1.7 | 0.00 | 0.00 | 0.00 | 93 | 1011.4 |
| 20260510081557 | 48 | 36 | 0.0 | 3.5 | 0.00 | 0.00 | 0.00 | 93 | 1011.3 |
| 20260510081050 | 48 | 24 | 0.9 | 4.3 | 0.00 | 0.00 | 0.00 | 93 | 1011.2 |
| 20260510080549 | 49 | 31 | 2.6 | 4.3 | 0.00 | 0.00 | 0.00 | 93 | 1011.2 |
| 20260510080053 | 49 | 199 | 0.0 | 3.5 | 0.00 | 0.00 | 0.00 | 93 | 1011.2 |
| 20260510075550 | 48 | 320 | 0.0 | 0.0 | 0.00 | 0.00 | 0.00 | 93 | 1011.2 |
| 20260510075046 | 49 | 286 | 0.0 | 0.0 | 0.00 | 0.00 | 0.00 | 92 | 1011.2 |
| 20260510074545 | 49 | 89 | 0.0 | 0.0 | 0.00 | 0.00 | 0.00 | 92 | 1011.2 |
| 20260510074043 | 49 | 89 | 0.0 | 0.0 | 0.00 | 0.00 | 0.00 | 92 | 1011.1 |
| 20260510073542 | 49 | 44 | 0.0 | 0.0 | 0.00 | 0.00 | 0.00 | 91 | 1011.1 |
| 20260510073041 | 50 | 120 | 0.0 | 0.9 | 0.00 | 0.00 | 0.00 | 92 | 1010.9 |
| 20260510072540 | 50 | 186 | 0.0 | 2.6 | 0.00 | 0.00 | 0.00 | 91 | 1011.0 |
| 20260510072042 | 50 | 40 | 0.0 | 2.6 | 0.00 | 0.00 | 0.00 | 90 | 1010.9 |
| 20260510071538 | 50 | 360 | 0.0 | 0.0 | 0.00 | 0.00 | 0.00 | 91 | 1011.0 |
| 20260510071037 | 50 | 31 | 0.0 | 0.0 | 0.00 | 0.00 | 0.00 | 90 | 1011.1 |
| 20260510070539 | 51 | 31 | 0.0 | 0.0 | 0.00 | 0.00 | 0.00 | 90 | 1011.1 |
| 20260510070037 | 50 | 31 | 0.0 | 4.3 | 0.00 | 0.00 | 0.00 | 89 | 1011.1 |
| 20260510065534 | 51 | 31 | 0.9 | 4.3 | 0.00 | 0.00 | 0.00 | 89 | 1010.9 |
| 20260510065035 | 51 | 334 | 0.0 | 0.0 | 0.00 | 0.00 | 0.00 | 89 | 1010.9 |
| 20260510064531 | 51 | 31 | 0.0 | 0.0 | 0.00 | 0.00 | 0.00 | 88 | 1010.9 |
| 20260510064030 | 52 | 346 | 0.0 | 0.0 | 0.00 | 0.00 | 0.00 | 88 | 1010.9 |
| 20260510063529 | 52 | 346 | 0.0 | 0.0 | 0.00 | 0.00 | 0.00 | 88 | 1010.9 |
| 20260510063029 | 52 | 346 | 0.0 | 0.0 | 0.00 | 0.00 | 0.00 | 87 | 1011.0 |
| 20260510062527 | 53 | 346 | 0.0 | 0.0 | 0.00 | 0.00 | 0.00 | 86 | 1011.0 |
| 20260510062028 | 53 | 346 | 0.0 | 0.0 | 0.00 | 0.00 | 0.00 | 86 | 1011.0 |
| 20260510061528 | 53 | 346 | 0.0 | 0.0 | 0.00 | 0.00 | 0.00 | 85 | 1011.0 |
| 20260510061023 | 54 | 346 | 0.0 | 0.0 | 0.00 | 0.00 | 0.00 | 85 | 1011.1 |
| 20260510060525 | 54 | 346 | 0.0 | 2.6 | 0.00 | 0.00 | 0.00 | 84 | 1011.1 |
| 20260510060020 | 55 | 5 | 0.0 | 2.6 | 0.00 | 0.00 | 0.00 | 83 | 1011.1 |
| 20260510055519 | 55 | 174 | 0.0 | 0.0 | 0.00 | 0.00 | 0.00 | 83 | 1010.9 |
| 20260510055018 | 55 | 174 | 0.0 | 0.0 | 0.00 | 0.00 | 0.00 | 82 | 1010.8 |
| 20260510054517 | 56 | 174 | 0.0 | 0.0 | 0.00 | 0.00 | 0.00 | 81 | 1010.8 |
| 20260510054016 | 56 | 140 | 0.0 | 0.0 | 0.00 | 0.00 | 0.00 | 80 | 1010.7 |
| 20260510053513 | 57 | 140 | 0.0 | 0.0 | 0.00 | 0.00 | 0.00 | 78 | 1010.9 |
| 20260510053012 | 58 | 233 | 0.0 | 0.0 | 0.00 | 0.00 | 0.00 | 75 | 1010.8 |
| 20260510052511 | 58 | 298 | 0.0 | 0.0 | 0.00 | 0.00 | 0.00 | 75 | 1010.9 |
| 20260510052010 | 59 | 304 | 0.0 | 0.0 | 0.00 | 0.00 | 0.00 | 77 | 1011.0 |
| 20260510051517 | 59 | 214 | 0.0 | 0.0 | 0.00 | 0.00 | 0.00 | 77 | 1010.9 |
| 20260510051007 | 59 | 183 | 0.0 | 0.0 | 0.00 | 0.00 | 0.00 | 75 | 1010.8 |
| 20260510050505 | 60 | 183 | 0.0 | 0.0 | 0.00 | 0.00 | 0.00 | 72 | 1010.6 |
| 20260510050004 | 61 | 183 | 0.0 | 0.0 | 0.00 | 0.00 | 0.00 | 70 | 1010.6 |
| 20260510045506 | 62 | 182 | 0.0 | 0.0 | 0.00 | 0.00 | 0.00 | 70 | 1010.6 |
| 20260510045002 | 63 | 280 | 0.0 | 0.0 | 0.00 | 0.00 | 0.00 | 65 | 1010.6 |
| 20260510044559 | 64 | 272 | 0.0 | 0.0 | 0.00 | 0.00 | 0.00 | 64 | 1010.6 |
| 20260510044058 | 65 | 272 | 0.0 | 3.5 | 0.00 | 0.00 | 0.00 | 59 | 1010.7 |
| 20260510043557 | 67 | 278 | 0.9 | 8.7 | 0.00 | 0.00 | 0.00 | 57 | 1010.5 |
| 20260510043056 | 68 | 329 | 2.6 | 11.3 | 0.00 | 0.00 | 0.00 | 53 | 1010.4 |
| 20260510042558 | 68 | 15 | 4.3 | 11.3 | 0.00 | 0.00 | 0.00 | 53 | 1010.3 |
| 20260510042053 | 68 | 302 | 4.3 | 11.3 | 0.00 | 0.00 | 0.00 | 52 | 1010.4 |
| 20260510041624 | 69 | 330 | 4.3 | 12.2 | 0.00 | 0.00 | 0.00 | 52 | 1010.5 |
| 20260510041051 | 69 | 311 | 5.2 | 12.2 | 0.00 | 0.00 | 0.00 | 52 | 1010.5 |
| 20260510040550 | 68 | 315 | 4.3 | 12.2 | 0.00 | 0.00 | 0.00 | 52 | 1010.4 |
| 20260510040050 | 68 | 295 | 4.3 | 10.4 | 0.00 | 0.00 | 0.00 | 52 | 1010.4 |
| 20260510035550 | 68 | 335 | 6.1 | 10.4 | 0.00 | 0.00 | 0.00 | 52 | 1010.5 |
| 20260510035048 | 68 | 329 | 4.3 | 9.6 | 0.00 | 0.00 | 0.00 | 53 | 1010.5 |
| 20260510034555 | 68 | 314 | 2.6 | 13.0 | 0.00 | 0.00 | 0.00 | 54 | 1010.5 |
| 20260510034050 | 67 | 315 | 3.5 | 13.0 | 0.00 | 0.00 | 0.00 | 56 | 1010.5 |
| 20260510033547 | 64 | 303 | 3.5 | 10.4 | 0.00 | 0.00 | 0.00 | 61 | 1010.5 |
| 20260510033053 | 64 | 303 | 0.9 | 8.7 | 0.00 | 0.00 | 0.00 | 67 | 1010.6 |
| 20260510032547 | 63 | 317 | 3.5 | 8.7 | 0.00 | 0.00 | 0.00 | 65 | 1010.5 |
| 20260510032051 | 64 | 296 | 0.9 | 5.2 | 0.00 | 0.00 | 0.00 | 62 | 1010.5 |
| 20260510031553 | 66 | 262 | 0.9 | 7.8 | 0.00 | 0.00 | 0.00 | 61 | 1010.5 |
| 20260510031051 | 68 | 275 | 1.7 | 8.7 | 0.00 | 0.00 | 0.00 | 54 | 1010.4 |
| 20260510030546 | 69 | 289 | 3.5 | 8.7 | 0.00 | 0.00 | 0.00 | 50 | 1010.4 |
| 20260510030046 | 69 | 315 | 2.6 | 12.2 | 0.00 | 0.00 | 0.00 | 49 | 1010.3 |
| 20260510025546 | 70 | 314 | 2.6 | 13.0 | 0.00 | 0.00 | 0.00 | 48 | 1010.3 |
| 20260510025049 | 70 | 321 | 6.1 | 13.0 | 0.00 | 0.00 | 0.00 | 47 | 1010.3 |
| 20260510024605 | 70 | 5 | 7.0 | 13.0 | 0.00 | 0.00 | 0.00 | 47 | 1010.3 |
| 20260510024145 | 69 | 360 | 6.1 | 14.8 | 0.00 | 0.00 | 0.00 | 48 | 1010.2 |
| 20260510023545 | 69 | 345 | 7.0 | 11.3 | 0.00 | 0.00 | 0.00 | 49 | 1010.3 |
| 20260510023045 | 69 | 355 | 3.5 | 10.4 | 0.00 | 0.00 | 0.00 | 50 | 1010.2 |
| 20260510022544 | 69 | 344 | 4.3 | 10.4 | 0.00 | 0.00 | 0.00 | 51 | 1010.2 |
| 20260510022043 | 68 | 360 | 3.5 | 9.6 | 0.00 | 0.00 | 0.00 | 51 | 1010.1 |
| 20260510021544 | 68 | 5 | 6.1 | 9.6 | 0.00 | 0.00 | 0.00 | 52 | 1010.0 |
| 20260510021042 | 68 | 296 | 2.6 | 8.7 | 0.00 | 0.00 | 0.00 | 58 | 1009.9 |
| 20260510020542 | 68 | 331 | 4.3 | 8.7 | 0.00 | 0.00 | 0.00 | 53 | 1009.9 |
| 20260510020041 | 68 | 317 | 1.7 | 10.4 | 0.00 | 0.00 | 0.00 | 58 | 1009.7 |
| 20260510015541 | 67 | 320 | 3.5 | 10.4 | 0.00 | 0.00 | 0.00 | 57 | 1009.6 |
| 20260510015039 | 67 | 5 | 2.6 | 8.7 | 0.00 | 0.00 | 0.00 | 59 | 1009.5 |
| 20260510014540 | 66 | 292 | 1.7 | 8.7 | 0.00 | 0.00 | 0.00 | 63 | 1009.4 |
| 20260510014041 | 64 | 319 | 1.7 | 7.0 | 0.00 | 0.00 | 0.00 | 73 | 1009.4 |
| 20260510013542 | 64 | 355 | 2.6 | 8.7 | 0.00 | 0.00 | 0.00 | 69 | 1009.2 |
| 20260510013049 | 61 | 306 | 3.5 | 8.7 | 0.00 | 0.00 | 0.00 | 75 | 1009.0 |
| 20260510012543 | 59 | 313 | 1.7 | 5.2 | 0.00 | 0.00 | 0.00 | 81 | 1009.1 |
| 20260510012039 | 58 | 317 | 0.9 | 2.6 | 0.00 | 0.00 | 0.00 | 87 | 1009.1 |
| 20260510011539 | 59 | 322 | 0.0 | 0.9 | 0.00 | 0.00 | 0.00 | 87 | 1009.1 |
| 20260510011037 | 59 | 333 | 0.0 | 0.9 | 0.00 | 0.00 | 0.00 | 86 | 1008.9 |
| 20260510010537 | 59 | 333 | 0.0 | 1.7 | 0.00 | 0.00 | 0.00 | 86 | 1009.0 |
| 20260510010039 | 60 | 333 | 0.0 | 2.6 | 0.00 | 0.00 | 0.00 | 85 | 1008.9 |
| 20260510005537 | 60 | 10 | 0.0 | 1.7 | 0.00 | 0.00 | 0.00 | 85 | 1009.0 |
| 20260510005136 | 60 | 5 | 0.0 | 1.7 | 0.00 | 0.00 | 0.00 | 84 | 1008.8 |
| 20260510004544 | 61 | 5 | 0.0 | 1.7 | 0.00 | 0.00 | 0.00 | 83 | 1008.7 |
| 20260510004038 | 61 | 19 | 0.0 | 0.9 | 0.00 | 0.00 | 0.00 | 82 | 1008.6 |
| 20260510003537 | 61 | 35 | 0.0 | 1.7 | 0.00 | 0.00 | 0.00 | 81 | 1008.6 |
| 20260510003037 | 62 | 35 | 0.0 | 1.7 | 0.00 | 0.00 | 0.00 | 81 | 1008.5 |
| 20260510002537 | 62 | 355 | 0.0 | 1.7 | 0.00 | 0.00 | 0.00 | 80 | 1008.5 |
| 20260510002036 | 62 | 355 | 0.0 | 1.7 | 0.00 | 0.00 | 0.00 | 80 | 1008.4 |
| 20260510001536 | 63 | 355 | 0.0 | 1.7 | 0.00 | 0.00 | 0.00 | 79 | 1008.5 |
| 20260510001036 | 63 | 355 | 0.9 | 1.7 | 0.00 | 0.00 | 0.00 | 77 | 1008.4 |
| 20260510000536 | 64 | 296 | 0.0 | 1.7 | 0.00 | 0.00 | 0.00 | 76 | 1008.3 |
| 20260510000035 | 65 | 296 | 0.0 | 0.9 | 0.00 | 0.00 | 0.00 | 76 | 1008.3 |
| 20260509235537 | 65 | 296 | 0.0 | 0.9 | 0.00 | 0.00 | 0.00 | 76 | 1008.1 |
| 20260509235038 | 66 | 296 | 0.0 | 0.9 | 0.00 | 0.00 | 0.00 | 75 | 1008.2 |
| 20260509234535 | 67 | 296 | 0.0 | 0.9 | 0.00 | 0.00 | 0.00 | 74 | 1008.1 |
| 20260509234035 | 68 | 296 | 0.0 | 0.9 | 0.00 | 0.00 | 0.00 | 72 | 1008.1 |
| 20260509233535 | 69 | 296 | 0.0 | 1.7 | 0.00 | 0.00 | 0.00 | 71 | 1008.0 |
| 20260509233035 | 71 | 296 | 0.9 | 1.7 | 0.00 | 0.00 | 0.00 | 67 | 1008.0 |
| 20260509232534 | 73 | 271 | 0.0 | 1.7 | 0.00 | 0.00 | 0.00 | 65 | 1007.9 |
| 20260509232036 | 73 | 271 | 0.0 | 0.9 | 0.00 | 0.00 | 0.00 | 66 | 1007.9 |
| 20260509231534 | 74 | 271 | 0.0 | 0.9 | 0.00 | 0.00 | 0.00 | 68 | 1007.8 |
| 20260509231035 | 74 | 271 | 0.0 | 0.0 | 0.00 | 0.00 | 0.00 | 65 | 1007.8 |
| 20260509230534 | 74 | 271 | 0.0 | 1.7 | 0.00 | 0.00 | 0.00 | 66 | 1007.8 |
| 20260509230033 | 74 | 271 | 0.0 | 1.7 | 0.00 | 0.00 | 0.00 | 59 | 1007.8 |
| 20260509225534 | 74 | 327 | 0.0 | 1.7 | 0.00 | 0.00 | 0.00 | 62 | 1007.8 |
| 20260509225031 | 74 | 284 | 0.0 | 1.7 | 0.00 | 0.00 | 0.00 | 61 | 1007.8 |
| 20260509224534 | 73 | 302 | 0.0 | 0.9 | 0.00 | 0.00 | 0.00 | 61 | 1007.8 |
| 20260509224033 | 74 | 302 | 0.0 | 3.5 | 0.00 | 0.00 | 0.00 | 62 | 1007.9 |
| 20260509223531 | 74 | 302 | 0.0 | 3.5 | 0.00 | 0.00 | 0.00 | 66 | 1007.9 |
| 20260509223035 | 74 | 300 | 0.0 | 1.7 | 0.00 | 0.00 | 0.00 | 64 | 1007.9 |
| 20260509222535 | 74 | 300 | 0.0 | 2.6 | 0.00 | 0.00 | 0.00 | 65 | 1007.9 |
| 20260509222035 | 73 | 339 | 0.9 | 2.6 | 0.00 | 0.00 | 0.00 | 68 | 1007.9 |
| 20260509221533 | 73 | 263 | 0.0 | 0.9 | 0.00 | 0.00 | 0.00 | 66 | 1008.0 |
| 20260509221030 | 72 | 263 | 0.0 | 0.9 | 0.00 | 0.00 | 0.00 | 66 | 1008.0 |
| 20260509220530 | 72 | 263 | 0.0 | 0.0 | 0.00 | 0.00 | 0.00 | 70 | 1007.9 |
| 20260509220031 | 71 | 263 | 0.0 | 0.0 | 0.00 | 0.00 | 0.00 | 71 | 1008.0 |
| 20260509215529 | 71 | 263 | 0.0 | 0.0 | 0.00 | 0.00 | 0.00 | 72 | 1007.9 |
| 20260509215028 | 71 | 263 | 0.0 | 0.0 | 0.00 | 0.00 | 0.00 | 70 | 1007.9 |
| 20260509214528 | 71 | 263 | 0.0 | 0.0 | 0.00 | 0.00 | 0.00 | 67 | 1007.9 |
| 20260509214028 | 71 | 263 | 0.0 | 0.0 | 0.00 | 0.00 | 0.00 | 67 | 1007.8 |
| 20260509213530 | 72 | 263 | 0.0 | 0.9 | 0.00 | 0.00 | 0.00 | 63 | 1007.8 |
| 20260509213029 | 72 | 263 | 0.0 | 2.6 | 0.00 | 0.00 | 0.00 | 62 | 1007.8 |
| 20260509212528 | 72 | 271 | 0.9 | 2.6 | 0.00 | 0.00 | 0.00 | 61 | 1007.9 |
| 20260509212027 | 72 | 323 | 0.0 | 1.7 | 0.00 | 0.00 | 0.00 | 63 | 1007.9 |
| 20260509211527 | 72 | 342 | 0.0 | 0.0 | 0.00 | 0.00 | 0.00 | 66 | 1007.8 |
| 20260509211027 | 72 | 342 | 0.0 | 0.9 | 0.00 | 0.00 | 0.00 | 65 | 1007.9 |
| 20260509210526 | 72 | 342 | 0.0 | 2.6 | 0.00 | 0.00 | 0.00 | 63 | 1007.8 |
| 20260509210033 | 72 | 342 | 0.9 | 2.6 | 0.00 | 0.00 | 0.00 | 61 | 1007.8 |
| 20260509205525 | 73 | 317 | 0.0 | 1.7 | 0.00 | 0.00 | 0.00 | 59 | 1007.7 |
| 20260509205028 | 73 | 317 | 0.0 | 5.2 | 0.00 | 0.00 | 0.00 | 60 | 1007.8 |
| 20260509204525 | 72 | 295 | 0.9 | 5.2 | 0.00 | 0.00 | 0.00 | 60 | 1007.7 |
| 20260509204025 | 72 | 318 | 0.0 | 1.7 | 0.00 | 0.00 | 0.00 | 63 | 1007.7 |
| 20260509203525 | 72 | 246 | 0.0 | 1.7 | 0.00 | 0.00 | 0.00 | 63 | 1007.8 |
| 20260509203026 | 72 | 206 | 0.0 | 5.2 | 0.00 | 0.00 | 0.00 | 61 | 1007.8 |
| 20260509202527 | 72 | 291 | 2.6 | 5.2 | 0.00 | 0.00 | 0.00 | 61 | 1007.7 |
| 20260509202024 | 72 | 323 | 0.9 | 6.1 | 0.00 | 0.00 | 0.00 | 60 | 1007.7 |
| 20260509201527 | 71 | 287 | 2.6 | 7.0 | 0.00 | 0.00 | 0.00 | 59 | 1007.7 |
| 20260509201026 | 71 | 269 | 1.7 | 5.2 | 0.00 | 0.00 | 0.00 | 61 | 1007.8 |
| 20260509200523 | 71 | 284 | 1.7 | 5.2 | 0.00 | 0.00 | 0.00 | 60 | 1007.6 |
| 20260509200023 | 71 | 246 | 0.9 | 5.2 | 0.00 | 0.00 | 0.00 | 60 | 1007.7 |
| 20260509195523 | 71 | 288 | 0.9 | 5.2 | 0.00 | 0.00 | 0.00 | 59 | 1007.6 |
| 20260509195021 | 72 | 266 | 1.7 | 5.2 | 0.00 | 0.00 | 0.00 | 59 | 1007.7 |
| 20260509194525 | 72 | 283 | 0.9 | 4.3 | 0.00 | 0.00 | 0.00 | 59 | 1007.7 |
| 20260509194021 | 73 | 13 | 0.9 | 4.3 | 0.00 | 0.00 | 0.00 | 57 | 1007.7 |
| 20260509193519 | 73 | 255 | 0.9 | 4.3 | 0.00 | 0.00 | 0.00 | 56 | 1007.8 |
| 20260509193020 | 74 | 202 | 0.9 | 5.2 | 0.00 | 0.00 | 0.00 | 56 | 1007.9 |
| 20260509192517 | 74 | 233 | 0.9 | 9.6 | 0.00 | 0.00 | 0.00 | 60 | 1007.9 |
| 20260509192016 | 74 | 253 | 1.7 | 9.6 | 0.00 | 0.00 | 0.00 | 59 | 1008.0 |
| 20260509191515 | 74 | 296 | 2.6 | 7.8 | 0.00 | 0.00 | 0.00 | 57 | 1007.9 |
| 20260509191016 | 74 | 181 | 0.9 | 4.3 | 0.00 | 0.00 | 0.00 | 58 | 1008.1 |
| 20260509190513 | 74 | 242 | 0.9 | 7.0 | 0.00 | 0.00 | 0.00 | 60 | 1008.0 |
| 20260509190012 | 73 | 101 | 1.7 | 7.0 | 0.00 | 0.00 | 0.00 | 61 | 1008.1 |
| 20260509185515 | 72 | 115 | 0.9 | 5.2 | 0.00 | 0.00 | 0.00 | 61 | 1008.1 |
| 20260509185010 | 73 | 190 | 1.7 | 7.8 | 0.00 | 0.00 | 0.00 | 58 | 1008.2 |
| 20260509184515 | 73 | 267 | 2.6 | 7.8 | 0.00 | 0.00 | 0.00 | 61 | 1008.3 |
| 20260509184008 | 71 | 194 | 0.9 | 5.2 | 0.00 | 0.00 | 0.00 | 63 | 1008.4 |
| 20260509183508 | 71 | 288 | 0.9 | 10.4 | 0.00 | 0.00 | 0.00 | 59 | 1008.6 |
| 20260509183007 | 72 | 71 | 0.9 | 10.4 | 0.00 | 0.00 | 0.00 | 60 | 1008.6 |
| 20260509182604 | 72 | 312 | 5.2 | 10.4 | 0.00 | 0.00 | 0.00 | 57 | 1008.6 |
| 20260509182003 | 73 | 243 | 3.5 | 9.6 | 0.00 | 0.00 | 0.00 | 60 | 1008.6 |
| 20260509181502 | 73 | 286 | 1.7 | 5.2 | 0.00 | 0.00 | 0.00 | 62 | 1008.6 |
| 20260509181100 | 73 | 270 | 0.0 | 8.7 | 0.00 | 0.00 | 0.00 | 62 | 1008.5 |
| 20260509180559 | 72 | 133 | 3.5 | 8.7 | 0.00 | 0.00 | 0.00 | 62 | 1008.6 |
| 20260509180058 | 71 | 189 | 1.7 | 4.3 | 0.00 | 0.00 | 0.00 | 62 | 1008.7 |
| 20260509175558 | 71 | 203 | 0.9 | 5.2 | 0.00 | 0.00 | 0.00 | 62 | 1008.9 |
| 20260509175056 | 71 | 279 | 0.9 | 8.7 | 0.00 | 0.00 | 0.00 | 65 | 1009.0 |
| 20260509174556 | 71 | 74 | 1.7 | 8.7 | 0.00 | 0.00 | 0.00 | 61 | 1009.1 |
| 20260509174054 | 72 | 300 | 0.9 | 8.7 | 0.00 | 0.00 | 0.00 | 65 | 1009.0 |
| 20260509173553 | 72 | 303 | 1.7 | 12.2 | 0.00 | 0.00 | 0.00 | 61 | 1009.0 |
| 20260509173117 | 72 | 171 | 1.7 | 12.2 | 0.00 | 0.00 | 0.00 | 66 | 1009.0 |
| 20260509172551 | 71 | 234 | 1.7 | 7.0 | 0.00 | 0.00 | 0.00 | 70 | 1009.1 |
| 20260509172051 | 71 | 300 | 1.7 | 9.6 | 0.00 | 0.00 | 0.00 | 64 | 1009.2 |
| 20260509171549 | 70 | 300 | 1.7 | 7.0 | 0.00 | 0.00 | 0.00 | 66 | 1009.1 |
| 20260509171047 | 70 | 247 | 1.7 | 10.4 | 0.00 | 0.00 | 0.00 | 65 | 1009.3 |
| 20260509170548 | 71 | 288 | 3.5 | 10.4 | 0.00 | 0.00 | 0.00 | 63 | 1009.4 |
| 20260509170054 | 71 | 292 | 1.7 | 6.1 | 0.00 | 0.00 | 0.00 | 68 | 1009.6 |
| 20260509165544 | 70 | 305 | 0.9 | 7.0 | 0.00 | 0.00 | 0.00 | 67 | 1009.6 |
| 20260509165042 | 70 | 283 | 0.9 | 8.7 | 0.00 | 0.00 | 0.00 | 70 | 1009.7 |
| 20260509164541 | 70 | 284 | 0.9 | 7.0 | 0.00 | 0.00 | 0.00 | 67 | 1009.8 |
| 20260509164040 | 69 | 198 | 1.7 | 7.8 | 0.00 | 0.00 | 0.00 | 70 | 1009.8 |
| 20260509163538 | 68 | 281 | 2.6 | 7.8 | 0.00 | 0.00 | 0.00 | 67 | 1009.7 |
| 20260509163037 | 67 | 298 | 0.0 | 6.1 | 0.00 | 0.00 | 0.00 | 73 | 1009.7 |
| 20260509162540 | 66 | 271 | 1.7 | 6.1 | 0.00 | 0.00 | 0.00 | 71 | 1009.7 |
| 20260509162034 | 65 | 202 | 0.9 | 3.5 | 0.00 | 0.00 | 0.00 | 72 | 1009.8 |
| 20260509161539 | 65 | 308 | 0.0 | 1.7 | 0.00 | 0.00 | 0.00 | 73 | 1009.9 |
| 20260509161033 | 65 | 223 | 0.0 | 2.6 | 0.00 | 0.00 | 0.00 | 74 | 1010.0 |
| 20260509160531 | 65 | 267 | 0.0 | 3.5 | 0.00 | 0.00 | 0.00 | 71 | 1010.2 |
| 20260509160030 | 65 | 281 | 0.0 | 0.0 | 0.00 | 0.00 | 0.00 | 72 | 1010.2 |
| 20260509155529 | 65 | 197 | 0.0 | 1.7 | 0.00 | 0.00 | 0.00 | 73 | 1010.3 |
| 20260509155030 | 65 | 195 | 0.0 | 1.7 | 0.00 | 0.00 | 0.00 | 72 | 1010.3 |
| 20260509154527 | 64 | 318 | 0.0 | 2.6 | 0.00 | 0.00 | 0.00 | 72 | 1010.4 |
| 20260509154027 | 64 | 286 | 0.0 | 3.5 | 0.00 | 0.00 | 0.00 | 73 | 1010.5 |
| 20260509153525 | 64 | 267 | 0.0 | 3.5 | 0.00 | 0.00 | 0.00 | 71 | 1010.5 |
| 20260509153032 | 63 | 247 | 0.0 | 6.1 | 0.00 | 0.00 | 0.00 | 75 | 1010.4 |
| 20260509152524 | 63 | 176 | 0.0 | 3.5 | 0.00 | 0.00 | 0.00 | 73 | 1010.2 |
| 20260509152024 | 62 | 200 | 0.0 | 3.5 | 0.00 | 0.00 | 0.00 | 73 | 1010.3 |
| 20260509151522 | 62 | 190 | 0.9 | 3.5 | 0.00 | 0.00 | 0.00 | 72 | 1010.3 |
| 20260509151025 | 63 | 196 | 0.0 | 3.5 | 0.00 | 0.00 | 0.00 | 71 | 1010.3 |
| 20260509150519 | 64 | 200 | 0.0 | 6.1 | 0.00 | 0.00 | 0.00 | 73 | 1010.3 |
| 20260509150019 | 64 | 161 | 0.0 | 5.2 | 0.00 | 0.00 | 0.00 | 72 | 1010.4 |
| 20260509145518 | 63 | 293 | 0.0 | 3.5 | 0.00 | 0.00 | 0.00 | 75 | 1010.5 |
| 20260509145017 | 62 | 304 | 0.9 | 4.3 | 0.00 | 0.00 | 0.00 | 74 | 1010.6 |
| 20260509144517 | 61 | 313 | 0.9 | 7.0 | 0.00 | 0.00 | 0.00 | 74 | 1010.8 |
| 20260509144016 | 61 | 182 | 0.9 | 7.0 | 0.00 | 0.00 | 0.00 | 74 | 1010.7 |
| 20260509143522 | 61 | 94 | 0.0 | 3.5 | 0.00 | 0.00 | 0.00 | 73 | 1010.7 |
| 20260509143017 | 61 | 163 | 0.0 | 3.5 | 0.00 | 0.00 | 0.00 | 73 | 1010.5 |
| 20260509142515 | 61 | 216 | 0.0 | 2.6 | 0.00 | 0.00 | 0.00 | 72 | 1010.6 |
| 20260509142015 | 61 | 29 | 0.0 | 2.6 | 0.00 | 0.00 | 0.00 | 73 | 1010.4 |
| 20260509141514 | 61 | 215 | 0.0 | 2.6 | 0.00 | 0.00 | 0.00 | 72 | 1010.2 |
| 20260509141015 | 62 | 261 | 0.0 | 2.6 | 0.00 | 0.00 | 0.00 | 72 | 1010.0 |
| 20260509140510 | 62 | 240 | 0.0 | 2.6 | 0.00 | 0.00 | 0.00 | 72 | 1010.2 |
| 20260509140013 | 61 | 198 | 0.0 | 1.7 | 0.00 | 0.00 | 0.00 | 74 | 1010.5 |
| 20260509135508 | 61 | 293 | 0.0 | 2.6 | 0.00 | 0.00 | 0.00 | 73 | 1010.6 |
| 20260509135007 | 60 | 185 | 0.9 | 2.6 | 0.00 | 0.00 | 0.00 | 73 | 1010.7 |
| 20260509134506 | 60 | 212 | 0.0 | 2.6 | 0.00 | 0.00 | 0.00 | 75 | 1010.9 |
| 20260509134009 | 59 | 220 | 0.0 | 2.6 | 0.00 | 0.00 | 0.00 | 76 | 1010.8 |
| 20260509133504 | 58 | 288 | 0.9 | 6.1 | 0.00 | 0.00 | 0.00 | 76 | 1011.0 |
| 20260509133002 | 58 | 261 | 0.9 | 6.1 | 0.00 | 0.00 | 0.00 | 76 | 1010.9 |
| 20260509132502 | 58 | 192 | 0.0 | 2.6 | 0.00 | 0.00 | 0.00 | 76 | 1010.9 |
| 20260509132000 | 57 | 184 | 0.0 | 2.6 | 0.00 | 0.00 | 0.00 | 77 | 1011.0 |
| 20260509131605 | 57 | 139 | 0.0 | 2.6 | 0.00 | 0.00 | 0.00 | 78 | 1010.9 |
| 20260509131057 | 56 | 183 | 0.0 | 2.6 | 0.00 | 0.00 | 0.00 | 78 | 1010.9 |
| 20260509130556 | 55 | 207 | 0.0 | 0.0 | 0.00 | 0.00 | 0.00 | 78 | 1011.1 |
| 20260509130126 | 55 | 202 | 0.0 | 0.0 | 0.00 | 0.00 | 0.00 | 79 | 1011.2 |
| 20260509125554 | 54 | 83 | 0.0 | 1.7 | 0.00 | 0.00 | 0.00 | 82 | 1011.1 |
| 20260509125052 | 53 | 299 | 0.0 | 1.7 | 0.00 | 0.00 | 0.00 | 83 | 1011.3 |
| 20260509124551 | 52 | 108 | 0.0 | 1.7 | 0.00 | 0.00 | 0.00 | 85 | 1011.3 |
| 20260509124050 | 52 | 194 | 0.0 | 1.7 | 0.00 | 0.00 | 0.00 | 86 | 1011.3 |
| 20260509123549 | 51 | 215 | 0.0 | 0.0 | 0.00 | 0.00 | 0.00 | 89 | 1011.4 |
| 20260509123116 | 51 | 215 | 0.0 | 0.0 | 0.00 | 0.00 | 0.00 | 89 | 1011.3 |
| 20260509122548 | 50 | 215 | 0.0 | 0.9 | 0.00 | 0.00 | 0.00 | 90 | 1011.3 |
| 20260509122049 | 50 | 218 | 0.0 | 0.9 | 0.00 | 0.00 | 0.00 | 90 | 1011.3 |
| 20260509121548 | 49 | 288 | 0.0 | 1.7 | 0.00 | 0.00 | 0.00 | 92 | 1011.2 |
| 20260509121048 | 49 | 288 | 0.0 | 1.7 | 0.00 | 0.00 | 0.00 | 93 | 1011.2 |
| 20260509120547 | 48 | 200 | 0.0 | 0.0 | 0.00 | 0.00 | 0.00 | 94 | 1011.3 |
| 20260509120049 | 48 | 200 | 0.0 | 0.9 | 0.00 | 0.00 | 0.00 | 95 | 1011.2 |
| 20260509115547 | 47 | 299 | 0.0 | 3.5 | 0.00 | 0.00 | 0.00 | 95 | 1011.2 |
| 20260509115044 | 46 | 299 | 0.0 | 3.5 | 0.00 | 0.00 | 0.00 | 95 | 1011.3 |
| 20260509114611 | 45 | 45 | 0.0 | 0.0 | 0.00 | 0.00 | 0.00 | 95 | 1011.3 |
| 20260509114043 | 45 | 45 | 0.0 | 0.0 | 0.00 | 0.00 | 0.00 | 95 | 1011.3 |
| 20260509113542 | 45 | 45 | 0.0 | 0.0 | 0.00 | 0.00 | 0.00 | 95 | 1011.3 |
| 20260509113045 | 44 | 41 | 0.0 | 0.0 | 0.00 | 0.00 | 0.00 | 95 | 1011.3 |
| 20260509112542 | 44 | 41 | 0.0 | 0.0 | 0.00 | 0.00 | 0.00 | 95 | 1011.3 |
| 20260509112039 | 44 | 55 | 0.0 | 0.0 | 0.00 | 0.00 | 0.00 | 95 | 1011.3 |
| 20260509111538 | 44 | 39 | 0.0 | 0.0 | 0.00 | 0.00 | 0.00 | 95 | 1011.1 |
| 20260509111038 | 43 | 39 | 0.0 | 0.0 | 0.00 | 0.00 | 0.00 | 95 | 1011.3 |
| 20260509110537 | 43 | 39 | 0.0 | 0.0 | 0.00 | 0.00 | 0.00 | 95 | 1011.2 |
| 20260509110035 | 43 | 39 | 0.0 | 0.0 | 0.00 | 0.00 | 0.00 | 95 | 1011.1 |
| 20260509105534 | 42 | 39 | 0.0 | 0.0 | 0.00 | 0.00 | 0.00 | 95 | 1011.1 |
| 20260509105035 | 42 | 39 | 0.0 | 0.0 | 0.00 | 0.00 | 0.00 | 95 | 1011.1 |